Time,TemperatureF,DewpointF,PressureIn,WindDirection,WindDirectionDegrees,WindSpeedMPH,WindSpeedGustMPH,Humidity,HourlyPrecipIn,Conditions,Clouds,dailyrainin,SolarRadiationWatts/m^2,SoftwareType,DateUTC
2013-02-28 00:00:00,44.9,40.0,30.28,WNW,292,0.0,1.0,83,0.00,,,-99.99,0,WeatherLink 5.7,2013-02-28 08:00:00,
2013-02-28 00:03:00,46.7,40.5,30.28,WNW,299,0.0,0.0,79,0.00,,,0.00,,Wunderground v.1.13,2013-02-28 08:03:00,
2013-02-28 00:08:00,46.5,40.3,30.28,WNW,299,0.0,0.0,79,0.00,,,0.00,,Wunderground v.1.13,2013-02-28 08:08:00,
2013-02-28 00:13:00,46.4,40.6,30.28,WNW,299,0.0,0.0,80,0.00,,,0.00,,Wunderground v.1.13,2013-02-28 08:13:00,
2013-02-28 00:15:00,44.5,40.0,30.29,North,-999,0.0,0.0,84,0.00,,,-99.99,0,WeatherLink 5.7,2013-02-28 08:15:00,
2013-02-28 00:23:00,46.0,40.2,30.28,WNW,299,0.0,0.0,80,0.00,,,0.00,,Wunderground v.1.13,2013-02-28 08:23:00,
2013-02-28 00:30:00,44.2,40.0,30.28,North,-999,0.0,0.0,85,0.00,,,-99.99,0,WeatherLink 5.7,2013-02-28 08:30:00,
2013-02-28 00:33:00,45.5,40.0,30.28,WNW,299,0.0,0.0,81,0.00,,,0.00,,Wunderground v.1.13,2013-02-28 08:33:00,
2013-02-28 00:38:00,45.4,39.9,30.28,WNW,299,0.0,0.0,81,0.00,,,0.00,,Wunderground v.1.13,2013-02-28 08:38:00,
2013-02-28 00:43:00,45.2,39.7,30.28,WNW,299,0.0,0.0,81,0.00,,,0.00,,Wunderground v.1.13,2013-02-28 08:43:00,
2013-02-28 00:45:00,43.9,39.7,30.29,North,-999,0.0,0.0,85,0.00,,,-99.99,0,WeatherLink 5.7,2013-02-28 08:45:00,
2013-02-28 00:48:00,45.1,40.2,30.28,WNW,299,0.0,0.0,83,0.00,,,0.00,,Wunderground v.1.13,2013-02-28 08:48:00,
2013-02-28 00:58:00,44.9,40.0,30.28,WNW,299,0.0,0.0,83,0.00,,,0.00,,Wunderground v.1.13,2013-02-28 08:58:00,
2013-02-28 01:00:00,43.6,39.7,30.29,North,-999,0.0,0.0,86,0.00,,,-99.99,0,WeatherLink 5.7,2013-02-28 09:00:00,
2013-02-28 01:03:00,44.8,40.0,30.29,WNW,299,0.0,0.0,83,0.00,,,0.00,,Wunderground v.1.13,2013-02-28 09:03:00,
2013-02-28 01:13:00,44.6,40.1,30.29,WNW,299,0.0,0.0,84,0.00,,,0.00,,Wunderground v.1.13,2013-02-28 09:13:00,
2013-02-28 01:15:00,43.5,39.9,30.29,North,-999,0.0,0.0,87,0.00,,,-99.99,0,WeatherLink 5.7,2013-02-28 09:15:00,
2013-02-28 01:23:00,44.3,39.8,30.29,WNW,299,0.0,0.0,84,0.00,,,0.00,,Wunderground v.1.13,2013-02-28 09:23:00,
2013-02-28 01:30:00,43.2,39.6,30.29,North,-999,0.0,0.0,87,0.00,,,-99.99,0,WeatherLink 5.7,2013-02-28 09:30:00,
2013-02-28 01:33:00,44.2,40.0,30.29,WNW,299,0.0,0.0,85,0.00,,,0.00,,Wunderground v.1.13,2013-02-28 09:33:00,
2013-02-28 01:38:00,44.1,39.9,30.29,WNW,299,0.0,0.0,85,0.00,,,0.00,,Wunderground v.1.13,2013-02-28 09:38:00,
2013-02-28 01:45:00,43.2,40.2,30.28,North,-999,0.0,0.0,89,0.00,,,-99.99,0,WeatherLink 5.7,2013-02-28 09:45:00,
2013-02-28 01:48:00,43.8,39.6,30.29,WNW,299,0.0,0.0,85,0.00,,,0.00,,Wunderground v.1.13,2013-02-28 09:48:00,
2013-02-28 01:58:00,43.6,39.7,30.29,WNW,299,0.0,0.0,86,0.00,,,0.00,,Wunderground v.1.13,2013-02-28 09:58:00,
2013-02-28 02:00:00,43.3,40.3,30.28,North,-999,0.0,0.0,89,0.00,,,-99.99,0,WeatherLink 5.7,2013-02-28 10:00:00,
2013-02-28 02:03:00,43.6,40.0,30.29,WNW,299,0.0,0.0,87,0.00,,,0.00,,Wunderground v.1.13,2013-02-28 10:03:00,
2013-02-28 02:13:00,43.5,39.9,30.29,WNW,299,0.0,0.0,87,0.00,,,0.00,,Wunderground v.1.13,2013-02-28 10:13:00,
2013-02-28 02:15:00,43.3,40.3,30.28,North,-999,0.0,0.0,89,0.00,,,-99.99,0,WeatherLink 5.7,2013-02-28 10:15:00,
2013-02-28 02:18:00,43.5,39.9,30.29,WNW,299,0.0,0.0,87,0.00,,,0.00,,Wunderground v.1.13,2013-02-28 10:18:00,
2013-02-28 02:28:00,43.3,39.7,30.29,WNW,299,0.0,0.0,87,0.00,,,0.00,,Wunderground v.1.13,2013-02-28 10:28:00,
2013-02-28 02:30:00,43.3,40.3,30.27,North,-999,0.0,0.0,89,0.00,,,-99.99,0,WeatherLink 5.7,2013-02-28 10:30:00,
2013-02-28 02:33:00,43.2,39.6,30.29,WNW,299,0.0,0.0,87,0.00,,,0.00,,Wunderground v.1.13,2013-02-28 10:33:00,
2013-02-28 02:43:00,43.2,39.9,30.29,WNW,299,0.0,0.0,88,0.00,,,0.00,,Wunderground v.1.13,2013-02-28 10:43:00,
2013-02-28 02:45:00,43.2,40.2,30.27,North,-999,0.0,0.0,89,0.00,,,-99.99,0,WeatherLink 5.7,2013-02-28 10:45:00,
2013-02-28 02:53:00,43.2,40.2,30.28,WNW,299,0.0,0.0,89,0.00,,,0.00,,Wunderground v.1.13,2013-02-28 10:53:00,
2013-02-28 02:58:00,43.2,40.2,30.28,WNW,299,0.0,0.0,89,0.00,,,0.00,,Wunderground v.1.13,2013-02-28 10:58:00,
2013-02-28 03:00:00,43.1,40.1,30.28,North,-999,0.0,0.0,89,0.00,,,-99.99,0,WeatherLink 5.7,2013-02-28 11:00:00,
2013-02-28 03:03:00,43.3,40.3,30.28,WNW,299,0.0,0.0,89,0.00,,,0.00,,Wunderground v.1.13,2013-02-28 11:03:00,
2013-02-28 03:08:00,43.3,40.6,30.28,WNW,299,0.0,0.0,90,0.00,,,0.00,,Wunderground v.1.13,2013-02-28 11:08:00,
2013-02-28 03:15:00,42.9,40.2,30.28,North,-999,0.0,0.0,90,0.00,,,-99.99,0,WeatherLink 5.7,2013-02-28 11:15:00,
2013-02-28 03:18:00,43.3,40.3,30.28,WNW,299,0.0,0.0,89,0.00,,,0.00,,Wunderground v.1.13,2013-02-28 11:18:00,
2013-02-28 03:28:00,43.3,40.3,30.28,WNW,299,0.0,0.0,89,0.00,,,0.00,,Wunderground v.1.13,2013-02-28 11:28:00,
2013-02-28 03:30:00,42.8,40.1,30.29,North,-999,0.0,0.0,90,0.00,,,-99.99,0,WeatherLink 5.7,2013-02-28 11:30:00,
2013-02-28 03:38:00,43.2,40.2,30.27,WNW,299,0.0,0.0,89,0.00,,,0.00,,Wunderground v.1.13,2013-02-28 11:38:00,
2013-02-28 03:43:00,43.2,40.2,30.27,WNW,299,0.0,0.0,89,0.00,,,0.00,,Wunderground v.1.13,2013-02-28 11:43:00,
2013-02-28 03:45:00,42.6,40.2,30.28,WNW,292,0.0,1.0,91,0.00,,,-99.99,0,WeatherLink 5.7,2013-02-28 11:45:00,
2013-02-28 03:53:00,43.1,40.1,30.27,WNW,299,0.0,0.0,89,0.00,,,0.00,,Wunderground v.1.13,2013-02-28 11:53:00,
2013-02-28 04:00:00,42.3,39.6,30.29,North,-999,0.0,0.0,90,0.00,,,-99.99,0,WeatherLink 5.7,2013-02-28 12:00:00,
2013-02-28 04:03:00,43.1,40.4,30.28,WNW,299,0.0,0.0,90,0.00,,,0.00,,Wunderground v.1.13,2013-02-28 12:03:00,
2013-02-28 04:08:00,43.1,40.4,30.28,WNW,299,0.0,0.0,90,0.00,,,0.00,,Wunderground v.1.13,2013-02-28 12:08:00,
2013-02-28 04:15:00,42.1,39.7,30.29,North,-999,0.0,0.0,91,0.00,,,-99.99,0,WeatherLink 5.7,2013-02-28 12:15:00,
2013-02-28 04:18:00,42.9,40.2,30.28,WNW,299,0.0,0.0,90,0.00,,,0.00,,Wunderground v.1.13,2013-02-28 12:18:00,
2013-02-28 04:28:00,42.8,40.1,30.28,WNW,299,0.0,0.0,90,0.00,,,0.00,,Wunderground v.1.13,2013-02-28 12:28:00,
2013-02-28 04:30:00,41.8,39.4,30.30,North,-999,0.0,0.0,91,0.00,,,-99.99,0,WeatherLink 5.7,2013-02-28 12:30:00,
2013-02-28 04:33:00,42.6,39.9,30.29,WNW,299,0.0,0.0,90,0.00,,,0.00,,Wunderground v.1.13,2013-02-28 12:33:00,
2013-02-28 04:38:00,42.6,39.9,30.29,WNW,299,0.0,0.0,90,0.00,,,0.00,,Wunderground v.1.13,2013-02-28 12:38:00,
2013-02-28 04:45:00,41.6,39.2,30.31,North,-999,0.0,0.0,91,0.00,,,-99.99,0,WeatherLink 5.7,2013-02-28 12:45:00,
2013-02-28 04:48:00,42.6,39.9,30.29,WNW,299,0.0,0.0,90,0.00,,,0.00,,Wunderground v.1.13,2013-02-28 12:48:00,
2013-02-28 04:53:00,42.5,39.8,30.29,WNW,299,0.0,0.0,90,0.00,,,0.00,,Wunderground v.1.13,2013-02-28 12:53:00,
2013-02-28 05:00:00,41.5,39.3,30.32,North,-999,0.0,0.0,92,0.00,,,-99.99,0,WeatherLink 5.7,2013-02-28 13:00:00,
2013-02-28 05:03:00,42.3,39.9,30.29,WNW,299,0.0,0.0,91,0.00,,,0.00,,Wunderground v.1.13,2013-02-28 13:03:00,
2013-02-28 05:08:00,42.2,39.8,30.29,WNW,299,0.0,0.0,91,0.00,,,0.00,,Wunderground v.1.13,2013-02-28 13:08:00,
2013-02-28 05:13:00,42.2,39.8,30.29,WNW,299,0.0,0.0,91,0.00,,,0.00,,Wunderground v.1.13,2013-02-28 13:13:00,
2013-02-28 05:15:00,41.5,39.3,30.32,North,-999,0.0,0.0,92,0.00,,,-99.99,0,WeatherLink 5.7,2013-02-28 13:15:00,
2013-02-28 05:23:00,41.9,39.2,30.29,WNW,299,0.0,0.0,90,0.00,,,0.00,,Wunderground v.1.13,2013-02-28 13:23:00,
2013-02-28 05:30:00,41.5,39.6,30.32,North,-999,0.0,0.0,93,0.00,,,-99.99,0,WeatherLink 5.7,2013-02-28 13:30:00,
2013-02-28 05:33:00,41.8,39.4,30.30,WNW,299,0.0,0.0,91,0.00,,,0.00,,Wunderground v.1.13,2013-02-28 13:33:00,
2013-02-28 05:38:00,41.6,39.2,30.30,WNW,299,0.0,0.0,91,0.00,,,0.00,,Wunderground v.1.13,2013-02-28 13:38:00,
2013-02-28 05:45:00,41.5,39.6,30.32,North,-999,0.0,0.0,93,0.00,,,-99.99,0,WeatherLink 5.7,2013-02-28 13:45:00,
2013-02-28 05:48:00,41.6,39.4,30.31,WNW,299,0.0,0.0,92,0.00,,,0.00,,Wunderground v.1.13,2013-02-28 13:48:00,
2013-02-28 05:53:00,41.6,39.4,30.31,WNW,299,0.0,0.0,92,0.00,,,0.00,,Wunderground v.1.13,2013-02-28 13:53:00,
2013-02-28 05:58:00,41.5,39.3,30.31,WNW,299,0.0,0.0,92,0.00,,,0.00,,Wunderground v.1.13,2013-02-28 13:58:00,
2013-02-28 06:00:00,41.6,39.7,30.32,North,-999,0.0,0.0,93,0.00,,,-99.99,8,WeatherLink 5.7,2013-02-28 14:00:00,
2013-02-28 06:08:00,41.5,39.3,30.32,WNW,299,0.0,0.0,92,0.00,,,0.00,,Wunderground v.1.13,2013-02-28 14:08:00,
2013-02-28 06:13:00,41.5,39.3,30.32,WNW,299,0.0,0.0,92,0.00,,,0.00,,Wunderground v.1.13,2013-02-28 14:13:00,
2013-02-28 06:15:00,43.1,41.8,30.32,WNW,292,0.0,2.0,95,0.00,,,-99.99,13,WeatherLink 5.7,2013-02-28 14:15:00,
2013-02-28 06:23:00,41.3,39.2,30.32,WNW,299,0.0,0.0,92,0.00,,,0.00,,Wunderground v.1.13,2013-02-28 14:23:00,
2013-02-28 06:30:00,44.1,42.8,30.33,North,-999,0.0,0.0,95,0.00,,,-99.99,13,WeatherLink 5.7,2013-02-28 14:30:00,
2013-02-28 06:33:00,41.5,39.6,30.32,WNW,299,0.0,0.0,93,0.00,,,0.00,,Wunderground v.1.13,2013-02-28 14:33:00,
2013-02-28 06:38:00,41.5,39.6,30.32,WNW,299,0.0,0.0,93,0.00,,,0.00,,Wunderground v.1.13,2013-02-28 14:38:00,
2013-02-28 06:43:00,41.5,39.3,30.32,WNW,299,0.0,0.0,92,0.00,,,0.00,,Wunderground v.1.13,2013-02-28 14:43:00,
2013-02-28 06:45:00,44.6,43.3,30.33,WNW,292,0.0,1.0,95,0.00,,,-99.99,18,WeatherLink 5.7,2013-02-28 14:45:00,
2013-02-28 06:53:00,41.5,39.6,30.32,WNW,299,0.0,0.0,93,0.00,,,0.00,,Wunderground v.1.13,2013-02-28 14:53:00,
2013-02-28 06:58:00,41.6,39.7,30.32,WNW,299,0.0,0.0,93,0.00,,,0.00,,Wunderground v.1.13,2013-02-28 14:58:00,
2013-02-28 07:00:00,45.1,43.8,30.34,WNW,292,0.0,1.0,95,0.00,,,-99.99,19,WeatherLink 5.7,2013-02-28 15:00:00,
2013-02-28 07:08:00,41.9,40.3,30.32,WNW,299,0.0,0.0,94,0.00,,,0.00,,Wunderground v.1.13,2013-02-28 15:08:00,
2013-02-28 07:15:00,45.4,43.8,30.34,North,-999,0.0,0.0,94,0.00,,,-99.99,20,WeatherLink 5.7,2013-02-28 15:15:00,
2013-02-28 07:18:00,43.2,41.9,30.32,WNW,299,0.0,0.0,95,0.00,,,0.00,,Wunderground v.1.13,2013-02-28 15:18:00,
2013-02-28 07:23:00,43.6,42.3,30.32,WNW,299,0.0,0.0,95,0.00,,,0.00,,Wunderground v.1.13,2013-02-28 15:23:00,
2013-02-28 07:30:00,46.4,45.0,30.34,North,-999,0.0,0.0,95,0.00,,,-99.99,33,WeatherLink 5.7,2013-02-28 15:30:00,
2013-02-28 07:33:00,44.1,42.8,30.33,WNW,299,0.0,0.0,95,0.00,,,0.00,,Wunderground v.1.13,2013-02-28 15:33:00,
2013-02-28 07:38:00,44.2,42.9,30.33,WNW,299,0.0,0.0,95,0.00,,,0.00,,Wunderground v.1.13,2013-02-28 15:38:00,
2013-02-28 07:43:00,44.3,43.0,30.33,WNW,299,0.0,0.0,95,0.00,,,0.00,,Wunderground v.1.13,2013-02-28 15:43:00,
2013-02-28 07:45:00,47.7,46.1,30.34,North,-999,0.0,0.0,94,0.00,,,-99.99,41,WeatherLink 5.7,2013-02-28 15:45:00,
2013-02-28 07:53:00,45.1,43.8,30.33,WNW,299,0.0,0.0,95,0.00,,,0.00,,Wunderground v.1.13,2013-02-28 15:53:00,
2013-02-28 08:00:00,48.5,46.9,30.34,North,-999,0.0,0.0,94,0.00,,,-99.99,27,WeatherLink 5.7,2013-02-28 16:00:00,
2013-02-28 08:03:00,45.2,43.9,30.34,WNW,299,0.0,0.0,95,0.00,,,0.00,,Wunderground v.1.13,2013-02-28 16:03:00,
2013-02-28 08:08:00,45.4,43.8,30.34,WNW,299,0.0,0.0,94,0.00,,,0.00,,Wunderground v.1.13,2013-02-28 16:08:00,
2013-02-28 08:15:00,49.8,47.9,30.35,North,-999,0.0,0.0,93,0.00,,,-99.99,28,WeatherLink 5.7,2013-02-28 16:15:00,
2013-02-28 08:18:00,45.5,43.9,30.34,WNW,299,0.0,0.0,94,0.00,,,0.00,,Wunderground v.1.13,2013-02-28 16:18:00,
2013-02-28 08:28:00,46.1,44.7,30.34,WNW,299,0.0,0.0,95,0.00,,,0.00,,Wunderground v.1.13,2013-02-28 16:28:00,
2013-02-28 08:30:00,52.5,49.0,30.35,WNW,292,0.0,1.0,88,0.00,,,-99.99,46,WeatherLink 5.7,2013-02-28 16:30:00,
2013-02-28 08:33:00,46.8,45.4,30.34,WNW,299,0.0,0.0,95,0.00,,,0.00,,Wunderground v.1.13,2013-02-28 16:33:00,
2013-02-28 08:43:00,47.6,46.0,30.34,WNW,299,0.0,0.0,94,0.00,,,0.00,,Wunderground v.1.13,2013-02-28 16:43:00,
2013-02-28 08:45:00,56.3,48.5,30.35,NNE,22,0.0,2.0,75,0.00,,,-99.99,36,WeatherLink 5.7,2013-02-28 16:45:00,
2013-02-28 08:53:00,48.2,46.6,30.34,WNW,299,0.0,0.0,94,0.00,,,0.00,,Wunderground v.1.13,2013-02-28 16:53:00,
2013-02-28 09:00:00,58.4,48.3,30.35,NW,315,1.0,3.0,69,0.00,,,-99.99,34,WeatherLink 5.7,2013-02-28 17:00:00,
2013-02-28 09:03:00,48.8,47.2,30.34,WNW,299,0.0,0.0,94,0.00,,,0.00,,Wunderground v.1.13,2013-02-28 17:03:00,
2013-02-28 09:08:00,49.2,47.3,30.34,WNW,299,0.0,0.0,93,0.00,,,0.00,,Wunderground v.1.13,2013-02-28 17:08:00,
2013-02-28 09:15:00,59.9,48.5,30.35,WNW,292,1.0,6.0,66,0.00,,,-99.99,41,WeatherLink 5.7,2013-02-28 17:15:00,
2013-02-28 09:18:00,50.1,48.2,30.35,WNW,299,0.0,0.0,93,0.00,,,0.00,,Wunderground v.1.13,2013-02-28 17:18:00,
2013-02-28 09:28:00,52.2,49.4,30.35,WNW,299,0.0,0.0,90,0.00,,,0.00,,Wunderground v.1.13,2013-02-28 17:28:00,
2013-02-28 09:30:00,60.9,48.6,30.35,NW,315,1.0,6.0,64,0.00,,,-99.99,37,WeatherLink 5.7,2013-02-28 17:30:00,
2013-02-28 09:38:00,54.7,49.0,30.35,NNE,30,0.0,2.0,81,0.00,,,0.00,,Wunderground v.1.13,2013-02-28 17:38:00,
2013-02-28 09:45:00,61.8,48.2,30.34,NNW,337,1.0,4.0,61,0.00,,,-99.99,169,WeatherLink 5.7,2013-02-28 17:45:00,
2013-02-28 09:48:00,56.7,48.1,30.35,NE,36,0.0,0.0,73,0.00,,,0.00,,Wunderground v.1.13,2013-02-28 17:48:00,
2013-02-28 09:58:00,58.1,48.0,30.35,NNW,328,1.0,1.0,69,0.00,,,0.00,,Wunderground v.1.13,2013-02-28 17:58:00,
2013-02-28 10:00:00,62.7,48.6,30.34,NW,315,1.0,4.0,60,0.00,,,-99.99,354,WeatherLink 5.7,2013-02-28 18:00:00,
2013-02-28 10:08:00,59.3,48.7,30.35,NW,317,1.0,3.0,68,0.00,,,0.00,,Wunderground v.1.13,2013-02-28 18:08:00,
2013-02-28 10:13:00,59.8,48.4,30.35,NNW,330,1.0,1.0,66,0.00,,,0.00,,Wunderground v.1.13,2013-02-28 18:13:00,
2013-02-28 10:15:00,63.9,48.8,30.33,WNW,292,0.0,4.0,58,0.00,,,-99.99,584,WeatherLink 5.7,2013-02-28 18:15:00,
2013-02-28 10:23:00,60.4,48.6,30.35,NNE,26,1.0,1.0,65,0.00,,,0.00,,Wunderground v.1.13,2013-02-28 18:23:00,
2013-02-28 10:30:00,64.7,49.1,30.33,WNW,292,1.0,4.0,57,0.00,,,-99.99,598,WeatherLink 5.7,2013-02-28 18:30:00,
2013-02-28 10:33:00,61.0,48.3,30.35,NNW,336,1.0,1.0,63,0.00,,,0.00,,Wunderground v.1.13,2013-02-28 18:33:00,
2013-02-28 10:38:00,61.3,48.2,30.35,NW,321,1.0,1.0,62,0.00,,,0.00,,Wunderground v.1.13,2013-02-28 18:38:00,
2013-02-28 10:45:00,65.8,48.7,30.33,WSW,247,1.0,7.0,54,0.00,,,-99.99,313,WeatherLink 5.7,2013-02-28 18:45:00,
2013-02-28 10:48:00,61.8,48.2,30.34,West,278,1.0,2.0,61,0.00,,,0.00,,Wunderground v.1.13,2013-02-28 18:48:00,
2013-02-28 10:58:00,62.6,48.5,30.34,SE,128,1.0,1.0,60,0.00,,,0.00,,Wunderground v.1.13,2013-02-28 18:58:00,
2013-02-28 11:00:00,66.3,49.2,30.32,NW,315,1.0,5.0,54,0.00,,,-99.99,259,WeatherLink 5.7,2013-02-28 19:00:00,
2013-02-28 11:03:00,62.9,48.8,30.34,NNW,340,1.0,1.0,60,0.00,,,0.00,,Wunderground v.1.13,2013-02-28 19:03:00,
2013-02-28 11:13:00,63.9,48.8,30.34,WNW,300,0.0,1.0,58,0.00,,,0.00,,Wunderground v.1.13,2013-02-28 19:13:00,
2013-02-28 11:15:00,66.6,48.4,30.31,WNW,292,1.0,4.0,52,0.00,,,-99.99,233,WeatherLink 5.7,2013-02-28 19:15:00,
2013-02-28 11:23:00,64.3,48.7,30.33,NW,311,1.0,2.0,57,0.00,,,0.00,,Wunderground v.1.13,2013-02-28 19:23:00,
2013-02-28 11:30:00,67.1,48.9,30.31,WNW,292,1.0,3.0,52,0.00,,,-99.99,450,WeatherLink 5.7,2013-02-28 19:30:00,
2013-02-28 11:33:00,65.0,48.9,30.33,West,273,1.0,1.0,56,0.00,,,0.00,,Wunderground v.1.13,2013-02-28 19:33:00,
2013-02-28 11:38:00,65.3,49.2,30.33,NW,316,1.0,1.0,56,0.00,,,0.00,,Wunderground v.1.13,2013-02-28 19:38:00,
2013-02-28 11:43:00,65.8,49.2,30.33,WSW,256,1.0,1.0,55,0.00,,,0.00,,Wunderground v.1.13,2013-02-28 19:43:00,
2013-02-28 11:45:00,67.9,49.1,30.31,East,90,1.0,4.0,51,0.00,,,-99.99,402,WeatherLink 5.7,2013-02-28 19:45:00,
2013-02-28 11:48:00,66.0,49.4,30.33,WSW,258,1.0,1.0,55,0.00,,,0.00,,Wunderground v.1.13,2013-02-28 19:48:00,
2013-02-28 11:58:00,66.3,48.7,30.33,North,11,0.0,1.0,53,0.00,,,0.00,,Wunderground v.1.13,2013-02-28 19:58:00,
2013-02-28 12:00:00,68.6,48.1,30.30,ENE,67,1.0,4.0,48,0.00,,,-99.99,323,WeatherLink 5.7,2013-02-28 20:00:00,
2013-02-28 12:08:00,66.3,49.2,30.32,West,275,1.0,1.0,54,0.00,,,0.00,,Wunderground v.1.13,2013-02-28 20:08:00,
2013-02-28 12:15:00,69.8,49.2,30.30,NW,315,1.0,6.0,48,0.00,,,-99.99,558,WeatherLink 5.7,2013-02-28 20:15:00,
2013-02-28 12:18:00,66.8,49.1,30.31,WNW,294,1.0,1.0,53,0.00,,,0.00,,Wunderground v.1.13,2013-02-28 20:18:00,
2013-02-28 12:23:00,67.1,49.4,30.31,WNW,294,1.0,1.0,53,0.00,,,0.00,,Wunderground v.1.13,2013-02-28 20:23:00,
2013-02-28 12:30:00,69.3,49.9,30.29,NW,315,2.0,10.0,50,0.00,,,-99.99,371,WeatherLink 5.7,2013-02-28 20:30:00,
2013-02-28 12:33:00,67.1,48.9,30.31,East,80,1.0,1.0,52,0.00,,,0.00,,Wunderground v.1.13,2013-02-28 20:33:00,
2013-02-28 12:43:00,67.8,49.0,30.31,West,271,0.0,0.0,51,0.00,,,0.00,,Wunderground v.1.13,2013-02-28 20:43:00,
2013-02-28 12:45:00,68.3,50.0,30.29,NW,315,1.0,6.0,52,0.00,,,-99.99,408,WeatherLink 5.7,2013-02-28 20:45:00,
2013-02-28 12:48:00,68.3,48.9,30.31,ENE,75,1.0,2.0,50,0.00,,,0.00,,Wunderground v.1.13,2013-02-28 20:48:00,
2013-02-28 12:53:00,68.4,48.5,30.31,WNW,292,1.0,1.0,49,0.00,,,0.00,,Wunderground v.1.13,2013-02-28 20:53:00,
2013-02-28 13:00:00,67.9,50.1,30.29,West,270,1.0,6.0,53,0.00,,,-99.99,490,WeatherLink 5.7,2013-02-28 21:00:00,
2013-02-28 13:03:00,68.8,48.9,30.30,WSW,250,1.0,1.0,49,0.00,,,0.00,,Wunderground v.1.13,2013-02-28 21:03:00,
2013-02-28 13:08:00,69.3,49.3,30.30,NW,309,1.0,2.0,49,0.00,,,0.00,,Wunderground v.1.13,2013-02-28 21:08:00,
2013-02-28 13:15:00,67.8,50.0,30.29,NW,315,1.0,9.0,53,0.00,,,-99.99,243,WeatherLink 5.7,2013-02-28 21:15:00,
2013-02-28 13:18:00,69.9,49.9,30.30,West,265,2.0,3.0,49,0.00,,,0.00,,Wunderground v.1.13,2013-02-28 21:18:00,
2013-02-28 13:28:00,69.4,49.4,30.30,NW,317,2.0,2.0,49,0.00,,,0.00,,Wunderground v.1.13,2013-02-28 21:28:00,
2013-02-28 13:30:00,67.9,48.6,30.29,WNW,292,1.0,5.0,50,0.00,,,-99.99,190,WeatherLink 5.7,2013-02-28 21:30:00,
2013-02-28 13:33:00,69.1,50.2,30.29,WNW,296,2.0,2.0,51,0.00,,,0.00,,Wunderground v.1.13,2013-02-28 21:33:00,
2013-02-28 13:43:00,68.4,49.6,30.29,North,349,2.0,2.0,51,0.00,,,0.00,,Wunderground v.1.13,2013-02-28 21:43:00,
2013-02-28 13:45:00,68.3,48.9,30.29,WNW,292,1.0,5.0,50,0.00,,,-99.99,122,WeatherLink 5.7,2013-02-28 21:45:00,
2013-02-28 13:53:00,68.3,50.5,30.29,West,261,1.0,1.0,53,0.00,,,0.00,,Wunderground v.1.13,2013-02-28 21:53:00,
2013-02-28 14:00:00,68.3,48.9,30.29,NW,315,0.0,3.0,50,0.00,,,-99.99,54,WeatherLink 5.7,2013-02-28 22:00:00,
2013-02-28 14:03:00,67.9,50.1,30.29,North,355,2.0,3.0,53,0.00,,,0.00,,Wunderground v.1.13,2013-02-28 22:03:00,
2013-02-28 14:08:00,67.8,50.5,30.29,West,269,2.0,2.0,54,0.00,,,0.00,,Wunderground v.1.13,2013-02-28 22:08:00,
2013-02-28 14:15:00,68.4,48.5,30.28,NW,315,1.0,4.0,49,0.00,,,-99.99,58,WeatherLink 5.7,2013-02-28 22:15:00,
2013-02-28 14:18:00,67.9,50.1,30.29,NNW,340,1.0,1.0,53,0.00,,,0.00,,Wunderground v.1.13,2013-02-28 22:18:00,
2013-02-28 14:23:00,67.9,48.6,30.29,NW,317,1.0,2.0,50,0.00,,,0.00,,Wunderground v.1.13,2013-02-28 22:23:00,
2013-02-28 14:28:00,67.9,48.6,30.29,WNW,297,1.0,1.0,50,0.00,,,0.00,,Wunderground v.1.13,2013-02-28 22:28:00,
2013-02-28 14:30:00,68.9,48.9,30.28,NW,315,1.0,4.0,49,0.00,,,-99.99,119,WeatherLink 5.7,2013-02-28 22:30:00,
2013-02-28 14:38:00,68.1,49.3,30.29,West,269,1.0,3.0,51,0.00,,,0.00,,Wunderground v.1.13,2013-02-28 22:38:00,
2013-02-28 14:45:00,68.6,50.3,30.28,NNW,337,1.0,6.0,52,0.00,,,-99.99,57,WeatherLink 5.7,2013-02-28 22:45:00,
2013-02-28 14:48:00,68.4,49.0,30.29,ENE,62,1.0,1.0,50,0.00,,,0.00,,Wunderground v.1.13,2013-02-28 22:48:00,
2013-02-28 14:53:00,68.4,49.0,30.29,NW,317,1.0,1.0,50,0.00,,,0.00,,Wunderground v.1.13,2013-02-28 22:53:00,
2013-02-28 15:00:00,68.1,49.8,30.29,NW,315,2.0,11.0,52,0.00,,,-99.99,64,WeatherLink 5.7,2013-02-28 23:00:00,
2013-02-28 15:03:00,68.3,48.9,30.29,NNW,340,0.0,1.0,50,0.00,,,0.00,,Wunderground v.1.13,2013-02-28 23:03:00,
2013-02-28 15:13:00,68.4,48.5,30.29,NW,310,1.0,2.0,49,0.00,,,0.00,,Wunderground v.1.13,2013-02-28 23:13:00,
2013-02-28 15:15:00,67.6,49.9,30.29,NW,315,1.0,6.0,53,0.00,,,-99.99,57,WeatherLink 5.7,2013-02-28 23:15:00,
2013-02-28 15:18:00,68.6,49.2,30.29,NNW,327,2.0,2.0,50,0.00,,,0.00,,Wunderground v.1.13,2013-02-28 23:18:00,
2013-02-28 15:28:00,68.9,48.9,30.29,NW,304,0.0,3.0,49,0.00,,,0.00,,Wunderground v.1.13,2013-02-28 23:28:00,
2013-02-28 15:30:00,66.9,50.2,30.29,WNW,292,1.0,7.0,55,0.00,,,-99.99,37,WeatherLink 5.7,2013-02-28 23:30:00,
2013-02-28 15:33:00,69.1,49.7,30.29,ESE,110,1.0,1.0,50,0.00,,,0.00,,Wunderground v.1.13,2013-02-28 23:33:00,
2013-02-28 15:43:00,68.8,49.9,30.29,NNW,330,1.0,1.0,51,0.00,,,0.00,,Wunderground v.1.13,2013-02-28 23:43:00,
2013-02-28 15:45:00,66.1,50.4,30.28,NW,315,0.0,5.0,57,0.00,,,-99.99,39,WeatherLink 5.7,2013-02-28 23:45:00,
2013-02-28 15:48:00,68.6,50.3,30.28,NNW,335,1.0,1.0,52,0.00,,,0.00,,Wunderground v.1.13,2013-02-28 23:48:00,
2013-02-28 15:58:00,68.1,49.8,30.28,WNW,289,2.0,7.0,52,0.00,,,0.00,,Wunderground v.1.13,2013-02-28 23:58:00,
2013-02-28 16:00:00,65.8,50.1,30.28,WNW,292,1.0,5.0,57,0.00,,,-99.99,41,WeatherLink 5.7,2013-03-01 00:00:00,
2013-02-28 16:03:00,67.9,49.6,30.29,WNW,282,2.0,3.0,52,0.00,,,0.00,,Wunderground v.1.13,2013-03-01 00:03:00,
2013-02-28 16:13:00,67.6,49.3,30.29,West,274,1.0,2.0,52,0.00,,,0.00,,Wunderground v.1.13,2013-03-01 00:13:00,
2013-02-28 16:15:00,65.3,50.1,30.29,NW,315,1.0,4.0,58,0.00,,,-99.99,24,WeatherLink 5.7,2013-03-01 00:15:00,
2013-02-28 16:23:00,67.3,50.1,30.29,NW,317,1.0,1.0,54,0.00,,,0.00,,Wunderground v.1.13,2013-03-01 00:23:00,
2013-02-28 16:28:00,67.1,50.4,30.29,WNW,291,1.0,5.0,55,0.00,,,0.00,,Wunderground v.1.13,2013-03-01 00:28:00,
2013-02-28 16:30:00,64.5,50.3,30.28,WNW,292,1.0,3.0,60,0.00,,,-99.99,13,WeatherLink 5.7,2013-03-01 00:30:00,
2013-02-28 16:38:00,66.4,50.2,30.29,NW,317,1.0,1.0,56,0.00,,,0.00,,Wunderground v.1.13,2013-03-01 00:38:00,
2013-02-28 16:43:00,66.3,50.6,30.29,NW,317,0.0,0.0,57,0.00,,,0.00,,Wunderground v.1.13,2013-03-01 00:43:00,
2013-02-28 16:45:00,63.5,49.8,30.29,WNW,292,0.0,3.0,61,0.00,,,-99.99,9,WeatherLink 5.7,2013-03-01 00:45:00,
2013-02-28 16:48:00,66.1,50.4,30.28,NW,317,0.0,1.0,57,0.00,,,0.00,,Wunderground v.1.13,2013-03-01 00:48:00,
2013-02-28 16:58:00,65.8,50.1,30.28,WNW,283,1.0,2.0,57,0.00,,,0.00,,Wunderground v.1.13,2013-03-01 00:58:00,
2013-02-28 17:00:00,62.7,49.9,30.29,WNW,292,0.0,4.0,63,0.00,,,-99.99,4,WeatherLink 5.7,2013-03-01 01:00:00,
2013-02-28 17:03:00,65.8,50.1,30.28,NW,318,1.0,1.0,57,0.00,,,0.00,,Wunderground v.1.13,2013-03-01 01:03:00,
2013-02-28 17:08:00,65.6,50.0,30.28,NW,315,1.0,1.0,57,0.00,,,0.00,,Wunderground v.1.13,2013-03-01 01:08:00,
2013-02-28 17:15:00,61.6,49.7,30.29,North,-999,0.0,0.0,65,0.00,,,-99.99,0,WeatherLink 5.7,2013-03-01 01:15:00,
2013-02-28 17:18:00,65.2,50.0,30.29,South,189,1.0,1.0,58,0.00,,,0.00,,Wunderground v.1.13,2013-03-01 01:18:00,
2013-02-28 17:28:00,64.5,50.3,30.29,WNW,288,1.0,2.0,60,0.00,,,0.00,,Wunderground v.1.13,2013-03-01 01:28:00,
2013-02-28 17:30:00,60.2,49.6,30.30,NW,315,0.0,1.0,68,0.00,,,-99.99,0,WeatherLink 5.7,2013-03-01 01:30:00,
2013-02-28 17:33:00,64.3,50.1,30.29,WNW,288,1.0,1.0,60,0.00,,,0.00,,Wunderground v.1.13,2013-03-01 01:33:00,
2013-02-28 17:43:00,63.7,50.0,30.29,WNW,288,0.0,0.0,61,0.00,,,0.00,,Wunderground v.1.13,2013-03-01 01:43:00,
2013-02-28 17:45:00,58.9,49.1,30.30,NW,315,0.0,1.0,70,0.00,,,-99.99,0,WeatherLink 5.7,2013-03-01 01:45:00,
2013-02-28 17:53:00,63.1,49.9,30.29,WNW,294,0.0,0.0,62,0.00,,,0.00,,Wunderground v.1.13,2013-03-01 01:53:00,
2013-02-28 18:00:00,58.0,49.0,30.31,NW,315,0.0,2.0,72,0.00,,,-99.99,0,WeatherLink 5.7,2013-03-01 02:00:00,
2013-02-28 18:03:00,62.6,49.8,30.29,NW,313,0.0,0.0,63,0.00,,,0.00,,Wunderground v.1.13,2013-03-01 02:03:00,
2013-02-28 18:08:00,62.1,49.8,30.29,NW,313,0.0,0.0,64,0.00,,,0.00,,Wunderground v.1.13,2013-03-01 02:08:00,
2013-02-28 18:15:00,57.2,48.6,30.32,North,-999,0.0,0.0,73,0.00,,,-99.99,0,WeatherLink 5.7,2013-03-01 02:15:00,
2013-02-28 18:18:00,61.3,49.8,30.29,NW,313,0.0,0.0,66,0.00,,,0.00,,Wunderground v.1.13,2013-03-01 02:18:00,
2013-02-28 18:23:00,60.9,49.5,30.29,NW,313,0.0,0.0,66,0.00,,,0.00,,Wunderground v.1.13,2013-03-01 02:23:00,
2013-02-28 18:28:00,60.4,49.4,30.29,NW,313,0.0,0.0,67,0.00,,,0.00,,Wunderground v.1.13,2013-03-01 02:28:00,
2013-02-28 18:30:00,56.3,48.5,30.32,North,-999,0.0,0.0,75,0.00,,,-99.99,0,WeatherLink 5.7,2013-03-01 02:30:00,
2013-02-28 18:38:00,59.5,49.3,30.30,NW,313,0.0,0.0,69,0.00,,,0.00,,Wunderground v.1.13,2013-03-01 02:38:00,
2013-02-28 18:43:00,59.0,48.8,30.30,NW,313,0.0,0.0,69,0.00,,,0.00,,Wunderground v.1.13,2013-03-01 02:43:00,
2013-02-28 18:45:00,55.6,48.5,30.33,North,-999,0.0,0.0,77,0.00,,,-99.99,0,WeatherLink 5.7,2013-03-01 02:45:00,
2013-02-28 18:53:00,58.3,49.3,30.30,NW,313,0.0,1.0,72,0.00,,,0.00,,Wunderground v.1.13,2013-03-01 02:53:00,
2013-02-28 19:00:00,55.0,48.6,30.33,North,-999,0.0,0.0,79,0.00,,,-99.99,0,WeatherLink 5.7,2013-03-01 03:00:00,
2013-02-28 19:03:00,57.8,48.8,30.31,NW,313,0.0,0.0,72,0.00,,,0.00,,Wunderground v.1.13,2013-03-01 03:03:00,
2013-02-28 19:13:00,57.3,48.7,30.31,NW,313,0.0,0.0,73,0.00,,,0.00,,Wunderground v.1.13,2013-03-01 03:13:00,
2013-02-28 19:15:00,54.2,47.8,30.33,North,-999,0.0,0.0,79,0.00,,,-99.99,0,WeatherLink 5.7,2013-03-01 03:15:00,
2013-02-28 19:18:00,57.0,48.8,30.32,NW,313,0.0,0.0,74,0.00,,,0.00,,Wunderground v.1.13,2013-03-01 03:18:00,
2013-02-28 19:28:00,56.5,48.7,30.32,NW,313,0.0,0.0,75,0.00,,,0.00,,Wunderground v.1.13,2013-03-01 03:28:00,
2013-02-28 19:30:00,53.6,48.2,30.33,North,-999,0.0,0.0,82,0.00,,,-99.99,0,WeatherLink 5.7,2013-03-01 03:30:00,
2013-02-28 19:33:00,56.2,48.7,30.32,NW,313,0.0,0.0,76,0.00,,,0.00,,Wunderground v.1.13,2013-03-01 03:33:00,
2013-02-28 19:43:00,55.7,48.6,30.32,NW,313,0.0,0.0,77,0.00,,,0.00,,Wunderground v.1.13,2013-03-01 03:43:00,
2013-02-28 19:45:00,53.3,47.9,30.33,North,-999,0.0,0.0,82,0.00,,,-99.99,0,WeatherLink 5.7,2013-03-01 03:45:00,
2013-02-28 19:53:00,55.3,48.2,30.33,NW,313,0.0,0.0,77,0.00,,,0.00,,Wunderground v.1.13,2013-03-01 03:53:00,
2013-02-28 20:00:00,52.8,47.8,30.34,North,-999,0.0,0.0,83,0.00,,,-99.99,0,WeatherLink 5.7,2013-03-01 04:00:00,
2013-02-28 20:03:00,54.8,48.1,30.33,NW,313,0.0,0.0,78,0.00,,,0.00,,Wunderground v.1.13,2013-03-01 04:03:00,
2013-02-28 20:08:00,54.5,48.1,30.33,NW,313,0.0,0.0,79,0.00,,,0.00,,Wunderground v.1.13,2013-03-01 04:08:00,
2013-02-28 20:13:00,54.4,48.0,30.33,NW,313,0.0,0.0,79,0.00,,,0.00,,Wunderground v.1.13,2013-03-01 04:13:00,
2013-02-28 20:15:00,52.2,47.5,30.34,North,-999,0.0,0.0,84,0.00,,,-99.99,0,WeatherLink 5.7,2013-03-01 04:15:00,
2013-02-28 20:23:00,53.9,48.2,30.33,NW,313,0.0,0.0,81,0.00,,,0.00,,Wunderground v.1.13,2013-03-01 04:23:00,
2013-02-28 20:30:00,51.9,47.8,30.34,NW,315,0.0,2.0,86,0.00,,,-99.99,0,WeatherLink 5.7,2013-03-01 04:30:00,
2013-02-28 20:33:00,53.6,48.2,30.33,NW,313,0.0,0.0,82,0.00,,,0.00,,Wunderground v.1.13,2013-03-01 04:33:00,
2013-02-28 20:38:00,53.5,48.1,30.33,NW,313,0.0,0.0,82,0.00,,,0.00,,Wunderground v.1.13,2013-03-01 04:38:00,
2013-02-28 20:45:00,52.0,47.6,30.35,NW,315,0.0,1.0,85,0.00,,,-99.99,0,WeatherLink 5.7,2013-03-01 04:45:00,
2013-02-28 20:48:00,53.2,47.8,30.34,NW,313,0.0,0.0,82,0.00,,,0.00,,Wunderground v.1.13,2013-03-01 04:48:00,
2013-02-28 20:53:00,53.1,47.7,30.34,NW,313,0.0,0.0,82,0.00,,,0.00,,Wunderground v.1.13,2013-03-01 04:53:00,
2013-02-28 20:58:00,52.8,47.5,30.34,NW,313,0.0,0.0,82,0.00,,,0.00,,Wunderground v.1.13,2013-03-01 04:58:00,
2013-02-28 21:03:00,52.6,47.6,30.34,NW,313,0.0,0.0,83,0.00,,,0.00,,Wunderground v.1.13,2013-03-01 05:03:00,
2013-02-28 21:13:00,52.3,47.6,30.34,NW,313,0.0,0.0,84,0.00,,,0.00,,Wunderground v.1.13,2013-03-01 05:13:00,
2013-02-28 21:15:00,51.3,46.9,30.35,North,-999,0.0,0.0,85,0.00,,,-99.99,0,WeatherLink 5.7,2013-03-01 05:15:00,
2013-02-28 21:23:00,52.0,47.6,30.34,NW,313,0.0,0.0,85,0.00,,,0.00,,Wunderground v.1.13,2013-03-01 05:23:00,
2013-02-28 21:30:00,50.7,46.7,30.35,North,-999,0.0,0.0,86,0.00,,,-99.99,0,WeatherLink 5.7,2013-03-01 05:30:00,
2013-02-28 21:33:00,51.9,47.8,30.34,NW,313,0.0,0.0,86,0.00,,,0.00,,Wunderground v.1.13,2013-03-01 05:33:00,
2013-02-28 21:38:00,52.0,47.9,30.34,NW,313,0.0,0.0,86,0.00,,,0.00,,Wunderground v.1.13,2013-03-01 05:38:00,
2013-02-28 21:43:00,52.2,48.1,30.34,NW,313,0.0,0.0,86,0.00,,,0.00,,Wunderground v.1.13,2013-03-01 05:43:00,
2013-02-28 21:45:00,49.9,46.5,30.35,NW,315,0.0,1.0,88,0.00,,,-99.99,0,WeatherLink 5.7,2013-03-01 05:45:00,
2013-02-28 21:53:00,52.0,47.6,30.35,NW,313,0.0,0.0,85,0.00,,,0.00,,Wunderground v.1.13,2013-03-01 05:53:00,
2013-02-28 21:58:00,51.9,47.5,30.35,NW,313,0.0,0.0,85,0.00,,,0.00,,Wunderground v.1.13,2013-03-01 05:58:00,
2013-02-28 22:00:00,49.6,46.5,30.35,North,-999,0.0,0.0,89,0.00,,,-99.99,0,WeatherLink 5.7,2013-03-01 06:00:00,
2013-02-28 22:03:00,51.7,47.6,30.35,NW,313,0.0,0.0,86,0.00,,,0.00,,Wunderground v.1.13,2013-03-01 06:03:00,
2013-02-28 22:08:00,51.6,47.5,30.35,NW,313,0.0,0.0,86,0.00,,,0.00,,Wunderground v.1.13,2013-03-01 06:08:00,
2013-02-28 22:15:00,49.1,45.7,30.35,North,-999,0.0,0.0,88,0.00,,,-99.99,0,WeatherLink 5.7,2013-03-01 06:15:00,
2013-02-28 22:18:00,51.1,46.7,30.35,NW,313,0.0,0.0,85,0.00,,,0.00,,Wunderground v.1.13,2013-03-01 06:18:00,
2013-02-28 22:28:00,50.8,46.8,30.35,NW,313,0.0,0.0,86,0.00,,,0.00,,Wunderground v.1.13,2013-03-01 06:28:00,
2013-02-28 22:30:00,48.6,45.5,30.35,North,-999,0.0,0.0,89,0.00,,,-99.99,0,WeatherLink 5.7,2013-03-01 06:30:00,
2013-02-28 22:38:00,50.2,46.5,30.35,NW,313,0.0,0.0,87,0.00,,,0.00,,Wunderground v.1.13,2013-03-01 06:38:00,
2013-02-28 22:43:00,50.1,46.7,30.35,NW,313,0.0,0.0,88,0.00,,,0.00,,Wunderground v.1.13,2013-03-01 06:43:00,
2013-02-28 22:45:00,48.0,44.9,30.35,North,-999,0.0,0.0,89,0.00,,,-99.99,0,WeatherLink 5.7,2013-03-01 06:45:00,
2013-02-28 22:53:00,49.8,46.4,30.35,NW,313,0.0,0.0,88,0.00,,,0.00,,Wunderground v.1.13,2013-03-01 06:53:00,
2013-02-28 23:00:00,47.6,44.8,30.34,NW,315,0.0,1.0,90,0.00,,,-99.99,0,WeatherLink 5.7,2013-03-01 07:00:00,
2013-02-28 23:03:00,49.5,46.4,30.35,NW,313,0.0,0.0,89,0.00,,,0.00,,Wunderground v.1.13,2013-03-01 07:03:00,
2013-02-28 23:13:00,49.2,45.8,30.35,NW,313,0.0,0.0,88,0.00,,,0.00,,Wunderground v.1.13,2013-03-01 07:13:00,
2013-02-28 23:15:00,47.3,44.5,30.34,North,-999,0.0,0.0,90,0.00,,,-99.99,0,WeatherLink 5.7,2013-03-01 07:15:00,
2013-02-28 23:18:00,48.9,45.8,30.35,NW,313,0.0,0.0,89,0.00,,,0.00,,Wunderground v.1.13,2013-03-01 07:18:00,
2013-02-28 23:28:00,48.6,45.5,30.35,NW,313,0.0,0.0,89,0.00,,,0.00,,Wunderground v.1.13,2013-03-01 07:28:00,
2013-02-28 23:30:00,46.8,44.3,30.34,North,-999,0.0,0.0,91,0.00,,,-99.99,0,WeatherLink 5.7,2013-03-01 07:30:00,
2013-02-28 23:33:00,48.5,45.4,30.35,NW,313,0.0,0.0,89,0.00,,,0.00,,Wunderground v.1.13,2013-03-01 07:33:00,
2013-02-28 23:38:00,48.3,45.2,30.35,NW,313,0.0,0.0,89,0.00,,,0.00,,Wunderground v.1.13,2013-03-01 07:38:00,
2013-02-28 23:45:00,46.5,44.0,30.34,North,-999,0.0,0.0,91,0.00,,,-99.99,0,WeatherLink 5.7,2013-03-01 07:45:00,
2013-02-28 23:48:00,48.0,44.9,30.35,NW,313,0.0,0.0,89,0.00,,,0.00,,Wunderground v.1.13,2013-03-01 07:48:00,
2013-02-28 23:58:00,47.6,44.5,30.35,NW,313,0.0,0.0,89,0.00,,,0.00,,Wunderground v.1.13,2013-03-01 07:58:00,